Location: *
(41.3833°S, 177.8333°W)
Time: 08:17:45
(UTC+00:00)

CZ-4C R/B - Pass Details

Date: 01 April 2020
Orbit: 637 x 1365 km, 63.4° (Epoch: 03 June)

Event Time Altitude Azimuth Distance (km) Brightness Sun altitude
Exits shadow 17:13:41 12° 287° (WNW) 3,106 4.5 -11.0°
Maximum altitude 17:20:19 37° 224° (SW) 1,753 3.5 -9.8°
Drops below altitude 10° 17:26:40 10° 158° (SSE) 2,861 5.3 -8.6°
Sets 17:29:20 0° 149° (SSE) 3,702 6.0 -8.1°
